DW7854 Weather Reports


time (UTC)temp
C
wind
direction
speed
KPH
gust
KPH
rain 1hr
cm
rain 24hr
cm
rain mn
cm
humidity
%
barometer
mb
20260906222306 38 154 3.2 6.4 0.00 0.00 0.00 40 1009.0
20260906221604 38 133 3.2 11.3 0.00 0.00 0.00 39 1008.7
20260906220506 39 171 4.8 9.7 0.00 0.00 0.00 38 1009.0
20260906220106 39 148 4.8 9.7 0.00 0.00 0.00 38 1008.6
20260906215606 40 179 6.4 9.7 0.00 0.00 0.00 37 1008.9
20260906214706 40 151 8.0 16.1 0.00 0.00 0.00 37 1008.9
20260906214606 40 153 4.8 16.1 0.00 0.00 0.00 37 1008.5
20260906213806 40 158 6.4 14.5 0.00 0.00 0.00 37 1008.8
20260906213006 40 116 3.2 14.5 0.00 0.00 0.00 37 1008.5
20260906212906 40 140 8.0 19.3 0.00 0.00 0.00 36 1008.9
20260906212006 40 148 4.8 19.3 0.00 0.00 0.00 37 1008.9
20260906211605 40 157 4.8 11.3 0.00 0.00 0.00 35 1008.6
20260906211106 40 85 1.6 8.0 0.00 0.00 0.00 37 1009.0
20260906210206 40 127 4.8 12.9 0.00 0.00 0.00 36 1009.2
20260906210005 40 183 1.6 14.5 0.00 0.00 0.00 36 1008.8
20260906205307 40 161 6.4 14.5 0.00 0.00 0.00 36 1009.3
20260906204623 39 25 3.2 12.9 0.00 0.00 0.00 34 1009.0
20260906204406 40 177 6.4 14.5 0.00 0.00 0.00 33 1009.3
20260906203506 40 167 11.3 17.7 0.00 0.00 0.00 34 1009.4
20260906203004 40 164 11.3 17.7 0.00 0.00 0.00 33 1009.2
20260906202606 40 155 8.0 14.5 0.00 0.00 0.00 33 1009.6
20260906201706 40 154 8.0 16.1 0.00 0.00 0.00 34 1009.9
20260906201504 40 166 6.4 17.7 0.00 0.00 0.00 34 1009.6
20260906200806 40 164 9.7 17.7 0.00 0.00 0.00 33 1010.0
20260906200106 39 158 8.0 14.5 0.00 0.00 0.00 31 1009.9
20260906195906 40 148 8.0 14.5 0.00 0.00 0.00 31 1010.2
20260906195006 40 148 9.7 16.1 0.00 0.00 0.00 34 1010.4
20260906194504 39 157 6.4 16.1 0.00 0.00 0.00 35 1010.1
20260906194106 40 161 6.4 14.5 0.00 0.00 0.00 36 1010.5
20260906193009 39 184 6.4 14.5 0.00 0.00 0.00 36 1010.3
20260906192307 39 179 8.0 16.1 0.00 0.00 0.00 38 1010.7
20260906191505 38 180 6.4 16.1 0.00 0.00 0.00 37 1010.5
20260906191406 39 168 11.3 17.7 0.00 0.00 0.00 38 1010.9
20260906190506 39 170 9.7 17.7 0.00 0.00 0.00 40 1010.9
20260906190005 38 159 8.0 16.1 0.00 0.00 0.00 41 1010.6
20260906185606 38 179 6.4 14.5 0.00 0.00 0.00 44 1011.0
20260906184706 38 159 11.3 20.9 0.00 0.00 0.00 44 1011.1
20260906184508 38 189 12.9 20.9 0.00 0.00 0.00 44 1010.7
20260906183005 37 146 6.4 11.3 0.00 0.00 0.00 47 1010.9
20260906182906 37 189 4.8 9.7 0.00 0.00 0.00 46 1011.3
20260906182006 36 192 3.2 11.3 0.00 0.00 0.00 47 1011.4
20260906181509 36 159 4.8 11.3 0.00 0.00 0.00 47 1011.2
20260906181106 36 169 4.8 11.3 0.00 0.00 0.00 47 1011.6
20260906180206 36 275 3.2 8.0 0.00 0.00 0.00 49 1011.7
20260906180005 36 317 3.2 8.0 0.00 0.00 0.00 49 1011.4
20260906175307 36 260 1.6 8.0 0.00 0.00 0.00 49 1011.8
20260906174511 36 273 0.0 8.0 0.00 0.00 0.00 48 1011.5
20260906173506 37 176 6.4 16.1 0.00 0.00 0.00 49 1012.1
20260906173003 37 190 4.8 16.1 0.00 0.00 0.00 50 1011.8
20260906172606 36 250 4.8 11.3 0.00 0.00 0.00 50 1012.2
20260906171613 36 338 3.2 8.0 0.00 0.00 0.00 51 1012.0
20260906170806 37 173 6.4 14.5 0.00 0.00 0.00 50 1012.4
20260906170009 37 196 8.0 14.5 0.00 0.00 0.00 50 1012.1
20260906165006 36 186 3.2 11.3 0.00 0.00 0.00 51 1012.6
20260906164610 36 355 3.2 9.7 0.00 0.00 0.00 51 1012.3
20260906164106 36 159 4.8 8.0 0.00 0.00 0.00 53 1012.7
20260906163207 35 323 4.8 9.7 0.00 0.00 0.00 54 1012.7
20260906163006 35 313 4.8 11.3 0.00 0.00 0.00 55 1012.3
20260906162306 35 331 6.4 11.3 0.00 0.00 0.00 55 1012.9
20260906161505 35 15 4.8 9.7 0.00 0.00 0.00 55 1012.5
20260906161406 35 312 4.8 9.7 0.00 0.00 0.00 55 1012.9
20260906160506 35 282 3.2 9.7 0.00 0.00 0.00 56 1012.9
20260906160006 35 286 1.6 8.0 0.00 0.00 0.00 56 1012.6
20260906155606 34 319 3.2 8.0 0.00 0.00 0.00 58 1012.9
20260906154706 33 320 3.2 8.0 0.00 0.00 0.00 59 1012.9
20260906154606 33 306 3.2 8.0 0.00 0.00 0.00 59 1012.6
20260906153806 33 317 3.2 6.4 0.00 0.00 0.00 61 1012.9
20260906153005 32 81 1.6 8.0 0.00 0.00 0.00 62 1012.6
20260906152906 33 334 3.2 8.0 0.00 0.00 0.00 62 1013.0
20260906152006 32 325 3.2 6.4 0.00 0.00 0.00 63 1012.9
20260906151606 32 324 3.2 6.4 0.00 0.00 0.00 63 1012.5
20260906151106 32 348 1.6 4.8 0.00 0.00 0.00 65 1012.9
20260906150206 31 258 1.6 6.4 0.00 0.00 0.00 69 1013.0
20260906150008 31 169 1.6 6.4 0.00 0.00 0.00 68 1012.6
20260906145307 31 303 1.6 6.4 0.00 0.00 0.00 69 1013.1
20260906144608 30 296 0.0 6.4 0.00 0.00 0.00 70 1012.8
20260906144406 30 289 1.6 4.8 0.00 0.00 0.00 71 1013.1
20260906143506 30 73 1.6 3.2 0.00 0.00 0.00 74 1013.0
20260906143112 29 135 0.0 6.4 0.00 0.00 0.00 75 1012.8
20260906142606 29 194 1.6 6.4 0.00 0.00 0.00 76 1013.2
20260906141706 28 205 1.6 6.4 0.00 0.00 0.00 78 1013.4
20260906141504 28 228 1.6 6.4 0.00 0.00 0.00 78 1013.0
20260906140806 28 229 1.6 6.4 0.00 0.00 0.00 81 1013.4
20260906140107 27 159 0.0 6.4 0.00 0.00 0.00 83 1013.0
20260906135906 27 215 3.2 6.4 0.00 0.00 0.00 83 1013.4
20260906135006 26 229 1.6 6.4 0.00 0.00 0.00 86 1013.4
20260906134606 26 261 0.0 4.8 0.00 0.00 0.00 87 1013.1
20260906134106 26 240 1.6 4.8 0.00 0.00 0.00 89 1013.5
20260906133015 25 205 0.0 3.2 0.00 0.00 0.00 93 1013.1
20260906131505 24 5 0.0 0.0 0.00 0.00 0.00 95 1013.0
20260906131406 24 0 0.0 0.0 0.00 0.00 0.00 95 1013.3
20260906130104 23 5 0.0 0.0 0.00 0.00 0.00 95 1012.9
20260906125606 23 0 0.0 0.0 0.00 0.00 0.00 94 1013.2
20260906124706 23 0 0.0 0.0 0.00 0.00 0.00 94 1013.3
20260906124605 23 5 0.0 0.0 0.00 0.00 0.00 94 1013.0
20260906123807 23 0 0.0 0.0 0.00 0.00 0.00 94 1013.3
20260906123004 22 290 0.0 0.0 0.00 0.00 0.00 94 1012.8
20260906122906 23 0 0.0 0.0 0.00 0.00 0.00 93 1013.1
20260906122006 23 0 0.0 0.0 0.00 0.00 0.00 93 1013.1
20260906121507 22 333 0.0 0.0 0.00 0.00 0.00 93 1012.6
20260906121106 23 0 0.0 0.0 0.00 0.00 0.00 93 1012.9
20260906120206 23 0 0.0 0.0 0.00 0.00 0.00 93 1012.8
20260906120004 22 333 0.0 0.0 0.00 0.00 0.00 93 1012.5
20260906115306 23 0 0.0 0.0 0.00 0.00 0.00 93 1012.7
20260906114632 23 350 0.0 0.0 0.00 0.00 0.00 93 1012.3
20260906114406 23 0 0.0 0.0 0.00 0.00 0.00 93 1012.6
20260906113506 23 0 0.0 0.0 0.00 0.00 0.00 92 1012.5
20260906113011 23 188 0.0 0.0 0.00 0.00 0.00 92 1012.1
20260906112606 23 0 0.0 0.0 0.00 0.00 0.00 92 1012.5
20260906111506 23 188 0.0 0.0 0.00 0.00 0.00 93 1011.9
20260906110806 23 0 0.0 0.0 0.00 0.00 0.00 92 1012.1
20260906110004 23 188 0.0 0.0 0.00 0.00 0.00 92 1011.6
20260906105906 23 0 0.0 0.0 0.00 0.00 0.00 92 1011.9
20260906105006 23 0 0.0 0.0 0.00 0.00 0.00 92 1011.8
20260906104502 23 188 0.0 0.0 0.00 0.00 0.00 92 1011.4
20260906103206 23 0 0.0 0.0 0.00 0.00 0.00 92 1011.6
20260906103018 23 188 0.0 0.0 0.00 0.00 0.00 91 1011.3
20260906102306 23 0 0.0 0.0 0.00 0.00 0.00 91 1011.6
20260906101510 23 188 0.0 0.0 0.00 0.00 0.00 91 1011.3
20260906101406 23 0 0.0 0.0 0.00 0.00 0.00 91 1011.6
20260906100506 23 0 0.0 0.0 0.00 0.00 0.00 91 1011.6
20260906100107 23 188 0.0 0.0 0.00 0.00 0.00 91 1011.2
20260906095606 23 0 0.0 0.0 0.00 0.00 0.00 91 1011.6
20260906094706 23 0 0.0 0.0 0.00 0.00 0.00 91 1011.5
20260906094504 23 188 0.0 0.0 0.00 0.00 0.00 91 1011.1
20260906093806 23 0 0.0 0.0 0.00 0.00 0.00 91 1011.4
20260906093105 23 188 0.0 0.0 0.00 0.00 0.00 91 1011.1
20260906092906 24 0 0.0 0.0 0.00 0.00 0.00 91 1011.5
20260906092006 24 0 0.0 0.0 0.00 0.00 0.00 91 1011.4
20260906091515 23 188 0.0 0.0 0.00 0.00 0.00 91 1010.9
20260906091106 24 0 0.0 0.0 0.00 0.00 0.00 91 1011.2
20260906090206 24 0 0.0 0.0 0.00 0.00 0.00 90 1011.2
20260906090105 23 188 0.0 0.0 0.00 0.00 0.00 89 1010.9
20260906084504 23 188 0.0 0.0 0.00 0.00 0.00 88 1011.0
20260906084406 24 0 0.0 0.0 0.00 0.00 0.00 89 1011.3
20260906083506 24 0 0.0 0.0 0.00 0.00 0.00 88 1011.3
20260906083006 24 188 0.0 0.0 0.00 0.00 0.00 88 1010.9
20260906081706 24 0 0.0 0.0 0.00 0.00 0.00 88 1011.2
20260906081503 24 188 0.0 0.0 0.00 0.00 0.00 88 1010.9
20260906080806 24 0 0.0 0.0 0.00 0.00 0.00 88 1011.3
20260906080010 24 188 0.0 0.0 0.00 0.00 0.00 88 1010.9
20260906075906 25 0 0.0 0.0 0.00 0.00 0.00 87 1011.3
20260906074606 24 188 0.0 0.0 0.00 0.00 0.00 88 1010.7
20260906074106 25 0 0.0 0.0 0.00 0.00 0.00 87 1011.2
20260906073005 25 188 0.0 1.6 0.00 0.00 0.00 87 1010.9
20260906072306 25 189 0.0 1.6 0.00 0.00 0.00 87 1011.3
20260906071604 25 188 0.0 1.6 0.00 0.00 0.00 86 1011.1
20260906071406 25 188 0.0 3.2 0.00 0.00 0.00 85 1011.4
20260906070506 25 188 1.6 3.2 0.00 0.00 0.00 86 1011.5
20260906070009 25 188 0.0 4.8 0.00 0.00 0.00 86 1011.2
20260906065606 25 189 1.6 4.8 0.00 0.00 0.00 86 1011.6
20260906064706 25 188 0.0 3.2 0.00 0.00 0.00 85 1011.5
20260906064505 25 188 0.0 3.2 0.00 0.00 0.00 85 1011.2
20260906063806 25 188 0.0 3.2 0.00 0.00 0.00 84 1011.5
20260906063103 25 188 0.0 1.6 0.00 0.00 0.00 83 1011.1
20260906062906 26 189 0.0 1.6 0.00 0.00 0.00 83 1011.5
20260906062006 26 0 0.0 0.0 0.00 0.00 0.00 82 1011.5
20260906061510 25 188 0.0 1.6 0.00 0.00 0.00 82 1011.1
20260906060206 26 189 1.6 4.8 0.00 0.00 0.00 83 1011.3
20260906060109 26 188 0.0 4.8 0.00 0.00 0.00 83 1011.0
20260906055306 26 189 0.0 3.2 0.00 0.00 0.00 82 1011.3
20260906054637 26 188 0.0 0.0 0.00 0.00 0.00 81 1011.0
20260906054406 26 0 0.0 0.0 0.00 0.00 0.00 81 1011.4
20260906053506 26 0 0.0 0.0 0.00 0.00 0.00 80 1011.4
20260906053104 26 188 0.0 0.0 0.00 0.00 0.00 80 1011.0
20260906052606 26 0 0.0 0.0 0.00 0.00 0.00 80 1011.4
20260906051706 27 0 0.0 0.0 0.00 0.00 0.00 79 1011.4
20260906051504 26 188 0.0 0.0 0.00 0.00 0.00 79 1011.0
20260906050806 27 0 0.0 0.0 0.00 0.00 0.00 78 1011.3
20260906050108 27 188 0.0 0.0 0.00 0.00 0.00 77 1011.0
20260906045906 27 0 0.0 0.0 0.00 0.00 0.00 76 1011.3
20260906045006 27 0 0.0 0.0 0.00 0.00 0.00 77 1011.2
20260906044606 27 188 0.0 0.0 0.00 0.00 0.00 76 1010.8
20260906044106 27 0 0.0 0.0 0.00 0.00 0.00 77 1011.0
20260906043206 27 0 0.0 0.0 0.00 0.00 0.00 76 1011.2
20260906043004 27 188 0.0 0.0 0.00 0.00 0.00 76 1010.9
20260906042307 27 189 0.0 1.6 0.00 0.00 0.00 76 1011.2
20260906041503 27 188 0.0 1.6 0.00 0.00 0.00 75 1010.7
20260906041406 28 189 0.0 1.6 0.00 0.00 0.00 75 1011.0
20260906040506 28 187 1.6 4.8 0.00 0.00 0.00 74 1011.2
20260906040114 28 188 0.0 4.8 0.00 0.00 0.00 74 1010.8
20260906035606 28 181 0.0 4.8 0.00 0.00 0.00 74 1011.2
20260906034706 28 188 3.2 8.0 0.00 0.00 0.00 74 1011.2
20260906034508 28 145 1.6 8.0 0.00 0.00 0.00 74 1010.8
20260906033806 28 190 3.2 6.4 0.00 0.00 0.00 73 1011.0
20260906033005 28 209 3.2 6.4 0.00 0.00 0.00 72 1010.9
20260906032906 28 178 3.2 6.4 0.00 0.00 0.00 72 1011.2
20260906032006 28 175 4.8 8.0 0.00 0.00 0.00 71 1011.2
20260906031615 28 179 4.8 8.0 0.00 0.00 0.00 71 1010.9
20260906030206 30 178 3.2 8.0 0.00 0.00 0.00 69 1011.0
20260906030009 29 191 1.6 8.0 0.00 0.00 0.00 69 1010.8
20260906025306 30 172 3.2 8.0 0.00 0.00 0.00 68 1011.1
20260906024608 30 201 4.8 8.0 0.00 0.00 0.00 67 1010.7
20260906024406 30 174 1.6 6.4 0.00 0.00 0.00 67 1011.1
20260906023506 30 186 3.2 8.0 0.00 0.00 0.00 66 1011.2
20260906023004 30 205 0.0 11.3 0.00 0.00 0.00 65 1010.7
20260906021706 31 174 6.4 16.1 0.00 0.00 0.00 64 1011.0
20260906021503 31 149 8.0 16.1 0.00 0.00 0.00 65 1010.8
20260906020806 31 173 9.7 22.5 0.00 0.00 0.00 65 1011.1
20260906020005 31 163 8.0 16.1 0.00 0.00 0.00 64 1010.6
20260906015906 32 184 3.2 16.1 0.00 0.00 0.00 64 1010.9
20260906015006 32 178 4.8 9.7 0.00 0.00 0.00 63 1010.7
20260906014515 32 171 4.8 9.7 0.00 0.00 0.00 63 1010.3
20260906014106 32 177 4.8 9.7 0.00 0.00 0.00 63 1010.6
20260906013206 32 173 4.8 11.3 0.00 0.00 0.00 61 1010.5
20260906013041 32 180 6.4 11.3 0.00 0.00 0.00 61 1010.1
20260906011509 32 166 6.4 12.9 0.00 0.00 0.00 57 1009.9
20260906011406 33 155 4.8 12.9 0.00 0.00 0.00 57 1010.2
20260906010506 33 140 1.6 3.2 0.00 0.00 0.00 55 1010.0
20260906010103 33 140 0.0 3.2 0.00 0.00 0.00 55 1009.6
20260906005606 34 139 1.6 3.2 0.00 0.00 0.00 54 1009.9
20260906004706 34 140 1.6 3.2 0.00 0.00 0.00 54 1009.7
20260906004605 34 140 1.6 3.2 0.00 0.00 0.00 53 1009.3
20260906003806 34 138 0.0 4.8 0.00 0.00 0.00 53 1009.6
20260906003103 34 140 0.0 4.8 0.00 0.00 0.00 52 1009.2
20260906002906 35 130 0.0 3.2 0.00 0.00 0.00 52 1009.5
20260906002006 35 130 1.6 3.2 0.00 0.00 0.00 51 1009.5
20260906001510 35 130 0.0 3.2 0.00 0.00 0.00 52 1009.1
20260906000206 35 171 3.2 4.8 0.00 0.00 0.00 50 1009.5
20260906000108 35 171 1.6 4.8 0.00 0.00 0.00 50 1009.0
20260905235307 35 175 1.6 4.8 0.00 0.00 0.00 50 1009.3
20260905234505 35 194 1.6 4.8 0.00 0.00 0.00 49 1008.8
20260905234406 36 166 1.6 4.8 0.00 0.00 0.00 49 1009.1
20260905233506 36 165 4.8 11.3 0.00 0.00 0.00 48 1009.1
20260905233009 36 166 4.8 11.3 0.00 0.00 0.00 47 1008.8
20260905232606 36 158 6.4 11.3 0.00 0.00 0.00 47 1009.1
20260905231706 36 164 8.0 9.7 0.00 0.00 0.00 46 1009.3
20260905231604 36 180 6.4 12.9 0.00 0.00 0.00 45 1008.9
20260905230806 37 154 8.0 12.9 0.00 0.00 0.00 45 1009.2
20260905230104 37 167 6.4 14.5 0.00 0.00 0.00 45 1008.8
20260905225906 37 154 9.7 14.5 0.00 0.00 0.00 44 1009.2
20260905225006 37 161 11.3 19.3 0.00 0.00 0.00 44 1009.1
20260905224513 37 169 11.3 16.1 0.00 0.00 0.00 43 1008.6
20260905224106 37 162 9.7 14.5 0.00 0.00 0.00 44 1009.0
20260905223206 38 164 9.7 17.7 0.00 0.00 0.00 42 1008.9
20260905223003 37 141 6.4 17.7 0.00 0.00 0.00 43 1008.5